Location: Krasnoyarskiy Pitomnik
(51.1333°N, 71.6167°E)
Time: 06:29:06
(UTC+00:00)

Transit 4A - Pass Details

Date: 16 April 2024
Orbit: 871 x 971 km, 66.8° (Epoch: 28 May)

Event Time Altitude Azimuth Distance (km) Brightness Sun altitude
Rises 16:29:04 0° 322° (NW) 3,476 12.6 -18.9°
Reaches altitude 10° 16:31:37 10° 326° (NNW) 2,531 11.4 -19.2°
Maximum altitude 16:37:22 59° 46° (NE) 1,009 8.0 -19.8°
Enters shadow 16:39:52 33° 111° (ESE) 1,424 8.4 -20.0°
